Location: Frysztak
(49.8373°N, 21.6089°E)
Time: 17:59:59
(UTC+02:00)

ISS - Pass Details

Date: 27 September 2018
Orbit: 403 x 408 km, 51.6° (Epoch: 21 October)

Event Time Altitude Azimuth Distance (km) Brightness Sun altitude
Rises 20:52:51 0° 270° (W) 2,339 1.0 -24.4°
Reaches altitude 10° 20:54:58 10° 274° (W) 1,477 -0.1 -24.7°
Enters shadow 20:56:54 31° 286° (WNW) 744 -2.0 -25.0°
